Weather History for KPEA - January, 2013

Change the Weather History Date:

Wednesday, January 16, 2013

  Actual Average (KOXV) Record (KOXV)
Temperature  
Mean Temperature 32 °F -  
Max Temperature 46 °F 32 °F 61 °F (1990)
Min Temperature 19 °F 11 °F -20 °F (1977)
Degree Days  
Heating Degree Days 32    
Moisture  
Dew Point 22 °F    
Average Humidity 64    
Maximum Humidity 92    
Minimum Humidity 55    
Precipitation  
Precipitation 0.00 in - - ()
Sea Level Pressure  
Sea Level Pressure 29.99 in    
Wind  
Wind Speed 10 mph (WSW)    
Max Wind Speed 18 mph    
Max Gust Speed 24 mph    
Visibility 10 miles    
Events      
Averages and records for this station are not official NWS values.
T = Trace of Precipitation, MM = Missing Value Source: NWS Daily Summary

Daily Weather History Graph

Daily Weather History Graph

Search for Another Location

Airport or City:

Trip Planner

Search our weather history database for the weather conditions in past years. The results will help you decide how hot, cold, wet, or windy it might be!

Date:

Astronomy

Jan. 16, 2013 Rise Set
Actual Time 7:35 AM CST 5:08 PM CST
Civil Twilight 7:04 AM CST 5:39 PM CST
Nautical Twilight 6:30 AM CST 6:13 PM CST
Astronomical Twilight 5:57 AM CST 6:46 PM CST
Moon 10:07 AM CST (1/16) 11:05 PM CST (1/16)
Length of Visible Light 10h 34m
Length of Day
9h 33m
Waxing Crescent, 28% of the Moon is Illuminated
Jan 16
Waxing Crescent
Jan 18
First Quarter
Jan 26
Full
Feb 3
Last Quarter
Feb 10
New

Hourly Weather History & Observations

Time (CST) Temp. Windchill Dew Point Humidity Pressure Visibility Wind Dir Wind Speed Gust Speed Precip Events Conditions
12:15 AM 19.9 °F 11.1 °F 10.8 °F 68% 30.09 in 10.0 mi South 6.9 mph - N/A   Clear
12:35 AM 20.3 °F 9.8 °F 10.6 °F 66% 30.08 in 10.0 mi South 9.2 mph - N/A   Clear
12:55 AM 20.7 °F 11.0 °F 10.4 °F 65% 30.08 in 10.0 mi SSW 8.1 mph - N/A   Clear
1:15 AM 20.5 °F 10.8 °F 10.4 °F 65% 30.07 in 10.0 mi SSW 8.1 mph - N/A   Clear
1:35 AM 21.0 °F 11.4 °F 10.4 °F 64% 30.06 in 10.0 mi SSW 8.1 mph - N/A   Clear
1:55 AM 21.0 °F 11.4 °F 10.2 °F 63% 30.06 in 10.0 mi SW 8.1 mph - N/A   Clear
2:15 AM 21.9 °F 11.7 °F 10.4 °F 61% 30.06 in 10.0 mi SSW 9.2 mph - N/A   Clear
2:35 AM 22.1 °F 12.0 °F 10.4 °F 61% 30.06 in 10.0 mi SSW 9.2 mph - N/A   Clear
2:55 AM 22.3 °F 11.5 °F 10.4 °F 60% 30.04 in 10.0 mi SSW 10.4 mph - N/A   Clear
3:15 AM 22.3 °F 12.2 °F 10.8 °F 61% 30.03 in 10.0 mi SSW 9.2 mph - N/A   Clear
3:35 AM 22.5 °F 11.7 °F 10.8 °F 61% 30.01 in 10.0 mi SSW 10.4 mph - N/A   Clear
3:55 AM 22.6 °F 12.6 °F 10.9 °F 61% 30.00 in 10.0 mi SSW 9.2 mph 16.1 mph N/A   Clear
4:15 AM 22.5 °F 12.4 °F 10.9 °F 61% 29.99 in 10.0 mi SSW 9.2 mph - N/A   Clear
4:35 AM 21.6 °F 14.0 °F 10.9 °F 64% 29.99 in 10.0 mi SSW 5.8 mph - N/A   Clear
4:55 AM 21.7 °F 12.3 °F 11.1 °F 64% 29.98 in 10.0 mi South 8.1 mph - N/A   Clear
5:15 AM 21.6 °F 11.3 °F 11.3 °F 65% 29.97 in 10.0 mi SSW 9.2 mph - N/A   Clear
5:35 AM 21.9 °F 10.4 °F 12.2 °F 66% 29.95 in 10.0 mi SSW 11.5 mph - N/A   Clear
5:55 AM 22.6 °F 11.3 °F 12.2 °F 64% 29.94 in 10.0 mi SSW 11.5 mph - N/A   Clear
6:35 AM 23.5 °F 12.4 °F 13.1 °F 64% 29.94 in 10.0 mi SSW 11.5 mph 17.3 mph N/A   Clear
6:55 AM 24.1 °F 12.0 °F 13.8 °F 65% 29.94 in 10.0 mi SSW 13.8 mph 18.4 mph N/A   Clear
7:15 AM 24.8 °F 12.9 °F 14.0 °F 64% 29.93 in 10.0 mi SW 13.8 mph - N/A   Scattered Clouds
7:35 AM 25.9 °F 14.8 °F 14.9 °F 63% 29.93 in 10.0 mi SW 12.7 mph 21.9 mph N/A   Mostly Cloudy
7:55 AM 27.0 °F 17.3 °F 14.9 °F 60% 29.92 in 10.0 mi SW 10.4 mph 16.1 mph N/A   Mostly Cloudy
8:15 AM 27.9 °F 17.8 °F 15.4 °F 60% 29.93 in 10.0 mi SW 11.5 mph 17.3 mph N/A   Overcast
8:35 AM 28.9 °F 18.6 °F 15.6 °F 58% 29.94 in 10.0 mi SW 12.7 mph 20.7 mph N/A   Overcast
8:55 AM 29.3 °F 19.1 °F 15.6 °F 57% 29.93 in 10.0 mi SW 12.7 mph 20.7 mph N/A   Mostly Cloudy
9:15 AM 29.8 °F 19.3 °F 16.3 °F 57% 29.93 in 10.0 mi SW 13.8 mph 18.4 mph N/A   Scattered Clouds
9:35 AM 30.7 °F 21.4 °F 16.7 °F 56% 29.93 in 10.0 mi WSW 11.5 mph 17.3 mph N/A   Mostly Cloudy
9:55 AM 31.1 °F 21.4 °F 17.6 °F 57% 29.93 in 10.0 mi WSW 12.7 mph 16.1 mph N/A   Mostly Cloudy
10:15 AM 32.7 °F 23.4 °F 18.5 °F 56% 29.93 in 10.0 mi WSW 12.7 mph 18.4 mph N/A   Mostly Cloudy
10:35 AM 33.8 °F 24.8 °F 19.8 °F 56% 29.92 in 10.0 mi WSW 12.7 mph 19.6 mph N/A   Mostly Cloudy
10:55 AM 34.0 °F 24.2 °F 20.3 °F 57% 29.92 in 10.0 mi West 15.0 mph - N/A   Mostly Cloudy
11:15 AM 36.7 °F 28.4 °F 22.3 °F 56% 29.91 in 10.0 mi WSW 12.7 mph 17.3 mph N/A   Scattered Clouds
11:35 AM 38.1 °F 29.8 °F 23.5 °F 56% 29.92 in 10.0 mi West 13.8 mph - N/A   Clear
11:55 AM 39.0 °F 31.8 °F 24.6 °F 56% 29.91 in 10.0 mi West 11.5 mph - N/A   Clear
12:15 PM 39.9 °F 32.5 °F 25.7 °F 57% 29.91 in 10.0 mi West 12.7 mph - N/A   Scattered Clouds
12:35 PM 40.3 °F 33.0 °F 26.4 °F 58% 29.90 in 10.0 mi West 12.7 mph 18.4 mph N/A   Overcast
12:55 PM 41.9 °F 35.9 °F 27.5 °F 57% 29.89 in 10.0 mi WSW 10.4 mph - N/A   Scattered Clouds
1:15 PM 42.4 °F 36.1 °F 28.4 °F 58% 29.90 in 10.0 mi West 11.5 mph 17.3 mph N/A   Clear
1:35 PM 43.9 °F 36.8 °F 29.3 °F 57% 29.90 in 10.0 mi West 15.0 mph 18.4 mph N/A   Clear
1:55 PM 44.6 °F 38.8 °F 30.0 °F 57% 29.90 in 10.0 mi West 11.5 mph 16.1 mph N/A   Clear
2:15 PM 45.5 °F 40.3 °F 30.4 °F 56% 29.91 in 10.0 mi West 10.4 mph 18.4 mph N/A   Clear
2:35 PM 46.4 °F 41.1 °F 31.1 °F 55% 29.91 in 10.0 mi West 11.5 mph 16.1 mph N/A   Clear
2:55 PM 46.4 °F 41.5 °F 31.1 °F 55% 29.91 in 10.0 mi West 10.4 mph - N/A   Clear
3:15 PM 46.6 °F - 31.3 °F 55% 29.91 in 10.0 mi West 12.7 mph - N/A   Clear
3:35 PM 46.8 °F - 31.5 °F 55% 29.92 in 10.0 mi West 10.4 mph - N/A   Clear
3:55 PM 46.9 °F - 31.3 °F 55% 29.93 in 10.0 mi WSW 9.2 mph - N/A   Scattered Clouds
4:15 PM 46.8 °F - 31.5 °F 55% 29.94 in 10.0 mi WSW 10.4 mph - N/A   Mostly Cloudy
4:35 PM 45.7 °F 42.7 °F 31.1 °F 57% 29.96 in 10.0 mi WSW 5.8 mph - N/A   Scattered Clouds
4:55 PM 45.3 °F 41.6 °F 31.3 °F 58% 29.96 in 10.0 mi West 6.9 mph - N/A   Mostly Cloudy
5:15 PM 44.6 °F 40.7 °F 31.1 °F 59% 29.97 in 10.0 mi West 6.9 mph - N/A   Overcast
5:55 PM 42.8 °F 41.1 °F 31.3 °F 64% 29.98 in 10.0 mi SW 3.5 mph - N/A   Overcast
6:15 PM 43.0 °F 39.5 °F 30.9 °F 62% 29.99 in 10.0 mi WSW 5.8 mph - N/A   Mostly Cloudy
6:35 PM 41.4 °F 37.6 °F 30.9 °F 66% 30.00 in 10.0 mi WSW 5.8 mph - N/A   Mostly Cloudy
6:55 PM 42.1 °F 39.2 °F 31.3 °F 66% 30.01 in 10.0 mi West 4.6 mph - N/A   Overcast
7:15 PM 41.9 °F 40.0 °F 31.1 °F 66% 30.03 in 10.0 mi West 3.5 mph - N/A   Overcast
7:35 PM 41.2 °F 36.6 °F 31.8 °F 69% 30.03 in 10.0 mi WNW 6.9 mph - N/A   Overcast
7:55 PM 43.0 °F 37.7 °F 32.0 °F 65% 30.05 in 10.0 mi NW 9.2 mph - N/A   Overcast
8:15 PM 40.8 °F 33.7 °F 32.0 °F 71% 30.05 in 10.0 mi NNW 12.7 mph - N/A   Mostly Cloudy
8:55 PM 39.4 °F 33.2 °F 32.0 °F 75% 30.08 in 10.0 mi NNW 9.2 mph - N/A   Mostly Cloudy
9:15 PM 40.1 °F 31.6 °F 32.2 °F 73% 30.09 in 10.0 mi NNW 16.1 mph 23.0 mph N/A   Overcast
9:35 PM 39.0 °F 31.4 °F 32.0 °F 76% 30.09 in 10.0 mi NNW 12.7 mph - N/A   Mostly Cloudy
9:55 PM 36.3 °F 28.9 °F 31.5 °F 83% 30.11 in 10.0 mi NNW 10.4 mph - N/A   Scattered Clouds
10:15 PM 34.2 °F 26.2 °F 30.6 °F 87% 30.12 in 10.0 mi NNW 10.4 mph - N/A   Clear
10:35 PM 34.2 °F 24.0 °F 32.0 °F 92% 30.14 in 10.0 mi NNW 16.1 mph - N/A   Scattered Clouds
10:55 PM 34.9 °F 24.9 °F 30.7 °F 85% 30.14 in 10.0 mi North 16.1 mph 24.2 mph N/A   Mostly Cloudy
11:15 PM 33.3 °F 22.8 °F 29.1 °F 85% 30.15 in 10.0 mi NNW 16.1 mph - N/A   Scattered Clouds
11:35 PM 32.5 °F 23.2 °F 28.9 °F 87% 30.17 in 10.0 mi NNW 12.7 mph - N/A   Mostly Cloudy
11:55 PM 31.8 °F 20.2 °F 26.8 °F 82% 30.19 in 10.0 mi NNW 18.4 mph 24.2 mph N/A   Mostly Cloudy